[[{"header":{"parameterUnit":"m.s-1","parameterCategory":1,"la1":30.2991,"la2":30.254,"lo1":-89.0895,"lo2":-89.0444,"dy":0.0017,"dx":0.0017,"nx":28,"ny":28,"refTime":"2023-08-03T09:00:00:Z","depth":0,"parameterNumber":2,"parameterNumberName":"U-component_of_WINDS"},"data":[0,0,0,0,0,0,0,0,0,0,0,0,0,0,0,0,0,0,0,0,0,0,0,0,0,0,0,0,0,0,0,0,0,0,0,0,0,0,0,0,0,0,0,0,0,0,0,0,0,0,0,0,0,0,0,0,0,0,4.3036,4.3038,0,4.3175,4.3176,4.3178,4.3128,4.3125,4.3122,4.3119,4.3264,4.3271,4.3277,0,0,0,0,0,0,0,0,0,0,0,0,0,4.2731,4.2737,4.3036,4.3038,4.3039,4.3175,4.3177,4.3178,4.3128,4.3125,4.3121,4.3117,4.3262,4.327,4.3278,0,0,0,0,0,0,0,0,0,0,0,0,0,4.2866,4.2739,4.3036,4.3031,4.3032,4.3174,4.3177,4.3179,4.3129,4.3125,4.312,4.3115,4.3259,4.3269,4.3279,4.3436,0,0,4.331,4.3314,0,0,0,0,0,0,0,0,4.2858,4.2877,4.303,4.3031,4.3033,4.3129,4.3122,4.3265,4.313,4.3092,4.3119,4.3113,4.3223,4.3236,4.3272,4.3442,4.3449,4.3311,4.3317,4.3321,4.3324,0,0,0,0,0,0,0,4.2849,4.2871,4.3091,4.3032,4.3034,4.3023,4.3037,4.3149,4.3182,4.3095,4.3092,4.3109,4.3223,4.3263,4.3275,4.3451,4.3311,4.332,4.3326,4.333,4.3757,4.3762,0,0,0,0,0,0,4.2839,4.2864,4.3087,4.3095,4.2932,4.3032,4.3048,4.3103,4.3181,4.3188,4.3113,4.3106,4.3248,4.3264,4.328,4.3469,4.3321,4.3331,4.3337,4.3752,4.3758,4.3764,0,0,0,0,0,0,4.2832,4.2859,4.3081,4.2979,4.3006,4.3042,4.3105,4.3108,4.3148,4.3194,4.32,4.3147,4.3245,4.3266,4.3397,4.3473,4.3335,4.3345,4.3746,4.3754,4.3761,4.3848,0,0,0,0,0,0,4.2824,4.2857,4.2916,4.298,4.3012,4.3195,4.3109,4.3114,4.3165,4.3158,4.3228,4.3235,4.3243,4.3382,4.3407,4.3485,4.3353,4.3739,4.3749,4.3759,4.3838,4.3857,4.3874,0,0,0,0,0,4.2813,4.2935,4.2919,4.2946,4.3086,4.3199,4.3217,4.3223,4.3171,4.3232,4.3262,4.3233,4.3461,4.3396,4.3424,4.3506,4.3734,4.3746,4.3758,4.383,4.3854,4.3873,0,0,0,0,0,0,4.288,4.2944,4.2927,4.3073,4.3131,4.3191,4.3266,4.3247,4.3322,4.3312,4.3316,4.3332,4.3468,4.35,4.3426,4.3662,4.359,4.3608,4.3636,4.3658,4.3676,4.3665,4.3361,0,0,0,0,0,4.2912,4.2998,4.3049,4.3173,4.3203,4.323,4.328,4.3279,4.3339,4.3364,4.3403,4.3464,4.355,4.3606,4.3687,4.3843,4.3858,4.3913,4.3931,4.3945,4.396,4.4046,4.4071,4.3803,4.3803,4.3802,0,0,4.2979,4.3024,4.3078,4.3188,4.3233,4.3322,4.3251,4.3349,4.3416,4.3379,4.3505,4.3537,4.3605,4.3749,4.3815,4.378,4.4038,4.396,4.3971,4.3979,4.4061,4.4086,4.4108,4.3811,4.3809,4.3808,0,0,4.3146,4.3189,4.3297,4.3343,4.3412,4.3429,4.3455,4.3518,4.3537,4.3663,4.3638,4.3718,4.3865,4.3915,4.3959,4.4146,4.4123,4.4173,4.4267,4.435,4.4371,4.439,4.4457,4.4481,4.4188,4.4188,4.4189,0,4.322,4.3353,4.3355,4.3455,4.3505,4.3475,4.3586,4.3631,4.3723,4.3758,4.3718,4.3902,4.3946,4.4102,4.4147,4.4185,4.4215,4.4165,4.4367,4.4386,4.4404,4.4468,4.4493,4.4194,4.4193,4.4193,4.4192,0,4.3441,4.3534,4.3614,4.3702,4.3761,4.3866,4.3885,4.3945,4.3939,4.3961,4.409,4.4142,4.4233,4.427,4.4266,4.4426,4.4403,4.4365,4.4293,4.4435,4.4495,4.452,4.4202,4.42,4.4198,4.4197,0,0,4.3654,4.3743,4.3772,4.3812,4.3886,4.3958,4.4062,4.415,4.4201,4.4266,4.4354,4.448,4.4446,4.4496,4.4498,4.4571,4.4716,4.4524,4.4526,4.4558,4.4896,4.4923,4.4951,4.4701,4.4706,4.4709,4.489,0,4.3827,4.4008,4.4014,4.418,4.4266,4.424,4.4331,4.4386,4.441,4.4487,4.4513,4.4602,4.455,4.4581,4.4652,4.4683,4.4784,4.467,4.4784,4.4788,4.4767,4.4983,4.5012,4.518,4.4914,4.4918,4.4921,0,4.4053,4.4124,4.4299,4.436,4.4397,4.4478,4.4559,4.4634,4.4697,4.4709,4.4766,4.4757,4.4864,4.4789,4.4938,4.4861,4.4907,4.493,4.4937,4.4947,4.4862,4.4999,4.5234,4.5259,4.4958,4.4955,4.4952,0,4.4191,4.433,4.4453,4.4488,4.4563,4.4621,4.4655,4.4713,4.4766,4.4838,4.4873,4.4957,4.5003,4.5069,4.5083,4.5027,4.5232,4.5158,4.5246,4.5246,4.529,4.5287,4.5535,4.5321,4.5321,4.532,4.532,0,4.4383,4.4491,4.4515,4.4591,4.4711,4.4717,4.4837,4.4867,4.4919,4.5001,4.4984,4.5061,4.5075,4.5156,4.5168,4.5289,4.531,4.5324,4.5326,4.5325,4.5324,4.5356,4.5344,4.5327,4.5325,4.5324,4.5323,0,4.4557,4.4578,4.4709,4.4769,4.4787,4.4873,4.4925,4.4998,4.502,4.5123,4.5148,4.5183,4.5277,4.5298,4.541,4.5418,4.5562,4.5553,4.5541,4.554,4.5626,4.5618,4.5904,4.5942,4.5703,4.5705,4.5707,0,4.4678,4.476,4.4829,4.4882,4.4919,4.5004,4.5058,4.5068,4.5125,4.5203,4.5267,4.5359,4.5433,4.5585,4.5621,4.5707,4.5699,4.5794,4.5712,4.5709,4.5701,4.5695,4.5704,4.5809,4.5812,4.5814,4.5815,0,4.4891,4.4897,4.4975,4.5057,4.5121,4.5186,4.5248,4.5293,4.5311,4.5376,4.5472,4.5529,4.5643,4.5735,4.5821,4.5858,4.5841,4.5841,4.5866,4.5866,4.5855,4.5862,4.5583,4.5834,4.5832,4.5831,4.583,4.5829,4.5043,4.5115,4.5174,4.5261,4.5309,4.5367,4.5438,4.5469,4.5548,4.5641,4.5642,4.5747,4.5809,4.5923,4.5965,4.6047,4.6018,4.6054,4.6063,4.6072,4.608,4.5842,4.6063,4.6063,4.6062,4.6062,4.6061,0,4.5255,4.5292,4.5372,4.5459,4.5528,4.5504,4.5572,4.5631,4.5723,4.5782,4.5855,4.5965,4.6054,4.6097,4.6186,4.6244,4.6238,4.6267,4.6263,4.6271,4.6101,4.607,4.627,4.627,4.627,4.627,4.627,4.627,4.5373,4.5493,4.5507,4.5651,4.5688,4.5789,4.583,4.5884,4.5931,4.6054,4.6128,4.6155,4.6208,4.63,4.6382,4.6392,4.6426,4.6458,4.6465,4.6305,4.6283,4.6263,4.6234,4.6465,4.6466,4.6629,4.663,4.6631]},{"header":{"parameterUnit":"m.s-1","parameterCategory":1,"la1":30.2991,"la2":30.254,"lo1":-89.0895,"lo2":-89.0444,"dy":0.0017,"dx":0.0017,"nx":28,"ny":28,"refTime":"2023-08-03T09:00:00:Z","depth":0,"parameterNumber":3,"parameterNumberName":"V-component_of_WINDS"},"data":[0,0,0,0,0,0,0,0,0,0,0,0,0,0,0,0,0,0,0,0,0,0,0,0,0,0,0,0,0,0,0,0,0,0,0,0,0,0,0,0,0,0,0,0,0,0,0,0,0,0,0,0,0,0,0,0,0,0,-1.3822,-1.3822,0,-1.384,-1.384,-1.384,-1.3839,-1.3838,-1.3838,-1.3838,-1.3855,-1.3855,-1.3856,0,0,0,0,0,0,0,0,0,0,0,0,0,-1.3785,-1.3786,-1.3822,-1.3822,-1.3823,-1.384,-1.384,-1.384,-1.3839,-1.3838,-1.3838,-1.3838,-1.3854,-1.3855,-1.3856,0,0,0,0,0,0,0,0,0,0,0,0,0,-1.3802,-1.3786,-1.3822,-1.3824,-1.3824,-1.384,-1.384,-1.3841,-1.3839,-1.3838,-1.3838,-1.3837,-1.3854,-1.3855,-1.3856,-1.3871,0,0,-1.3859,-1.386,0,0,0,0,0,0,0,0,-1.3801,-1.3803,-1.3823,-1.3824,-1.3824,-1.3837,-1.3833,-1.3851,-1.3839,-1.3833,-1.3838,-1.3837,-1.3849,-1.385,-1.3855,-1.3872,-1.3873,-1.386,-1.386,-1.3861,-1.3861,0,0,0,0,0,0,0,-1.38,-1.3802,-1.3829,-1.3824,-1.3824,-1.3823,-1.3825,-1.3837,-1.3843,-1.3834,-1.3833,-1.3836,-1.3849,-1.3854,-1.3855,-1.3873,-1.386,-1.386,-1.3861,-1.3862,-1.3903,-1.3903,0,0,0,0,0,0,-1.3798,-1.3801,-1.3829,-1.383,-1.3811,-1.3824,-1.3826,-1.3833,-1.3843,-1.3844,-1.3836,-1.3835,-1.3852,-1.3854,-1.3856,-1.3873,-1.3861,-1.3862,-1.3862,-1.3902,-1.3903,-1.3903,0,0,0,0,0,0,-1.3798,-1.3801,-1.3828,-1.3816,-1.3819,-1.3825,-1.3833,-1.3834,-1.3838,-1.3845,-1.3846,-1.384,-1.3852,-1.3854,-1.3867,-1.3874,-1.3862,-1.3863,-1.3902,-1.3903,-1.3903,-1.3909,0,0,0,0,0,0,-1.3797,-1.3801,-1.3807,-1.3816,-1.382,-1.384,-1.3833,-1.3834,-1.384,-1.384,-1.3848,-1.3849,-1.3852,-1.3866,-1.3868,-1.3875,-1.3864,-1.3901,-1.3902,-1.3903,-1.3908,-1.391,-1.3911,0,0,0,0,0,-1.3795,-1.3807,-1.3807,-1.381,-1.3827,-1.384,-1.3842,-1.3845,-1.3841,-1.3846,-1.3851,-1.3849,-1.3873,-1.3867,-1.387,-1.3877,-1.3901,-1.3902,-1.3903,-1.3907,-1.3909,-1.3911,0,0,0,0,0,0,-1.3798,-1.3808,-1.3808,-1.3824,-1.3831,-1.384,-1.3847,-1.3847,-1.3855,-1.3854,-1.3857,-1.3859,-1.3872,-1.3876,-1.3869,-1.3892,-1.3886,-1.3888,-1.3889,-1.389,-1.3892,-1.389,-1.3865,0,0,0,0,0,-1.3801,-1.381,-1.3819,-1.3832,-1.3835,-1.3841,-1.3846,-1.3848,-1.3855,-1.3858,-1.3864,-1.3871,-1.388,-1.3885,-1.3894,-1.3909,-1.391,-1.3915,-1.3917,-1.3918,-1.3919,-1.3926,-1.3928,-1.3907,-1.3907,-1.3907,0,0,-1.3806,-1.3813,-1.3818,-1.3832,-1.3838,-1.3848,-1.3843,-1.3854,-1.3861,-1.386,-1.3872,-1.3877,-1.3885,-1.3899,-1.3905,-1.3902,-1.3925,-1.3919,-1.392,-1.392,-1.3928,-1.393,-1.3932,-1.3908,-1.3907,-1.3907,0,0,-1.382,-1.3826,-1.3837,-1.3843,-1.3853,-1.3856,-1.3859,-1.3868,-1.3871,-1.3884,-1.3883,-1.3891,-1.3907,-1.3912,-1.3917,-1.3934,-1.3932,-1.3936,-1.3943,-1.3951,-1.3953,-1.3954,-1.3959,-1.3961,-1.3938,-1.3938,-1.3938,0,-1.3824,-1.3839,-1.3843,-1.3853,-1.3859,-1.386,-1.387,-1.3876,-1.3888,-1.3891,-1.3888,-1.3908,-1.3913,-1.3928,-1.3932,-1.3937,-1.3939,-1.3935,-1.3952,-1.3954,-1.3955,-1.396,-1.3962,-1.3938,-1.3938,-1.3938,-1.3938,0,-1.3845,-1.3855,-1.3863,-1.3874,-1.3881,-1.3892,-1.3896,-1.3903,-1.3904,-1.3908,-1.392,-1.3927,-1.3937,-1.3941,-1.3942,-1.3956,-1.3954,-1.3952,-1.3946,-1.3958,-1.3962,-1.3964,-1.3939,-1.3939,-1.3938,-1.3938,0,0,-1.386,-1.3874,-1.3876,-1.3881,-1.3892,-1.3899,-1.391,-1.392,-1.3925,-1.3933,-1.3942,-1.3955,-1.3953,-1.3959,-1.396,-1.3967,-1.3979,-1.3964,-1.3964,-1.3966,-1.3994,-1.3995,-1.3997,-1.3978,-1.3979,-1.3979,-1.3993,0,-1.3874,-1.3893,-1.3897,-1.3913,-1.3923,-1.3923,-1.3932,-1.3939,-1.3943,-1.3951,-1.3956,-1.3965,-1.3962,-1.3965,-1.3972,-1.3976,-1.3984,-1.3975,-1.3985,-1.3986,-1.3982,-1.4,-1.4001,-1.4013,-1.3995,-1.3995,-1.3995,0,-1.3893,-1.3902,-1.3919,-1.3928,-1.3932,-1.3941,-1.395,-1.3958,-1.3966,-1.3968,-1.3975,-1.3976,-1.3986,-1.3981,-1.3995,-1.3989,-1.3993,-1.3996,-1.3997,-1.3997,-1.3991,-1.3999,-1.4018,-1.4019,-1.3998,-1.3998,-1.3998,0,-1.3902,-1.3918,-1.393,-1.3935,-1.3946,-1.3951,-1.3956,-1.3964,-1.397,-1.3978,-1.3982,-1.3991,-1.3996,-1.4003,-1.4006,-1.4002,-1.402,-1.4015,-1.4021,-1.4021,-1.4024,-1.4024,-1.4042,-1.4029,-1.4029,-1.4028,-1.4028,0,-1.3917,-1.3927,-1.3934,-1.3942,-1.3953,-1.3957,-1.3969,-1.3973,-1.398,-1.3988,-1.3989,-1.3997,-1.4001,-1.4009,-1.4012,-1.4023,-1.4025,-1.4027,-1.4027,-1.4026,-1.4026,-1.4029,-1.4027,-1.4029,-1.4029,-1.4029,-1.4029,0,-1.3927,-1.3933,-1.3946,-1.3956,-1.3959,-1.3967,-1.3974,-1.3982,-1.3986,-1.3996,-1.3998,-1.4005,-1.4014,-1.4019,-1.403,-1.4032,-1.4044,-1.4044,-1.4041,-1.4041,-1.4047,-1.4046,-1.4068,-1.4071,-1.4056,-1.4056,-1.4056,0,-1.3936,-1.3944,-1.3955,-1.396,-1.3966,-1.3975,-1.3981,-1.3985,-1.3991,-1.4001,-1.4007,-1.4017,-1.4024,-1.404,-1.4045,-1.4054,-1.4053,-1.406,-1.4055,-1.4053,-1.4053,-1.4052,-1.4052,-1.4061,-1.4061,-1.4061,-1.4061,0,-1.3951,-1.3953,-1.3962,-1.3972,-1.3979,-1.3987,-1.3995,-1.3999,-1.4005,-1.4011,-1.4021,-1.4028,-1.404,-1.4049,-1.4058,-1.4063,-1.4063,-1.4063,-1.4065,-1.4064,-1.4061,-1.4062,-1.4043,-1.4063,-1.4062,-1.4062,-1.4062,-1.4062,-1.396,-1.3967,-1.3976,-1.3985,-1.3992,-1.3999,-1.4006,-1.4011,-1.402,-1.403,-1.4032,-1.4043,-1.4051,-1.4063,-1.4068,-1.4076,-1.4074,-1.4077,-1.4077,-1.4078,-1.4078,-1.4061,-1.4078,-1.4078,-1.4078,-1.4078,-1.4077,0,-1.3974,-1.398,-1.3989,-1.4,-1.4007,-1.4008,-1.4016,-1.4022,-1.4032,-1.4039,-1.4047,-1.4058,-1.4067,-1.4074,-1.4083,-1.4088,-1.4088,-1.409,-1.4089,-1.409,-1.4079,-1.4076,-1.409,-1.409,-1.409,-1.409,-1.409,-1.409,-1.3982,-1.3994,-1.3997,-1.4012,-1.4018,-1.4028,-1.4033,-1.4039,-1.4045,-1.4058,-1.4066,-1.407,-1.4077,-1.4087,-1.4095,-1.4097,-1.4099,-1.4101,-1.4103,-1.4092,-1.4091,-1.409,-1.4087,-1.4102,-1.4102,-1.4113,-1.4113,-1.4113]}]]